Location: Maccacari
(45.1333°N, 11.1333°E)
Time: 01:02:30
(UTC+00:00)

A-11 Canister half - Pass Details

Date: 22 January 2021
Orbit: 1525 x 1684 km, 47.3° (Epoch: 07 March)

Event Time Altitude Azimuth Distance (km) Brightness Sun altitude
Rises 21:24:54 0° 293° (WNW) 4,799 12.1 -54.0°
Reaches altitude 10° 21:28:22 10° 284° (WNW) 3,835 11.4 -54.5°
Enters shadow 21:31:39 21° 270° (W) 3,060 10.7 -54.9°
Maximum altitude 21:36:40 33° 226° (SW) 2,519 - -55.6°
Drops below altitude 10° 21:45:09 10° 168° (SSE) 3,916 - -56.8°
Sets 21:48:45 0° 159° (SSE) 4,913 - -57.2°
